When you browse on this site, cookies collect data to enhance your experience and personalize the content and advertising you see.
Visit our Privacy Policy to learn more. By continuing to use the site, you agree to this use of cookies and data.
  • In Österreich
  • Länderverzeichnis
  • Für 7 Tage
  • Wassertemperatur
  • Wetterkarte
  • News
  • Widgets
  • user-avatar
    Anmelden

    Stündliche Wetter Padilla

    Heute, 24 Januar, Freitag

    Zeit Temperatur Niederschläge Wind Luftdruck Luftfeuchtigkeit
    00:00 +22°C° 0.2 mm 1 m/S 676 mmHg 90%
    01:00 +20°C° 0.2 mm 0 m/S 676 mmHg 90%
    02:00 +19°C° 0.1 mm 0 m/S 676 mmHg 90%
    03:00 +19°C° 0.1 mm 0 m/S 675 mmHg 89%
    04:00 +19°C° 0.1 mm 0 m/S 675 mmHg 89%
    05:00 +19°C° 0 mm 0 m/S 675 mmHg 88%
    06:00 +19°C° 0 mm 0 m/S 676 mmHg 87%
    07:00 +19°C° 0 mm 0 m/S 676 mmHg 85%
    08:00 +23°C° 0 mm 1 m/S 677 mmHg 81%
    09:00 +25°C° 0 mm 1 m/S 677 mmHg 76%
    10:00 +27°C° 0 mm 1 m/S 678 mmHg 71%
    11:00 +28°C° 0.2 mm 1 m/S 677 mmHg 69%
    12:00 +29°C° 0.2 mm 1 m/S 677 mmHg 66%
    13:00 +30°C° 0.2 mm 1 m/S 676 mmHg 63%
    14:00 +29°C° 0.3 mm 1 m/S 675 mmHg 64%
    15:00 +27°C° 0.3 mm 0 m/S 675 mmHg 65%
    16:00 +27°C° 0.3 mm 0 m/S 674 mmHg 66%
    17:00 +25°C° 0.5 mm 0 m/S 675 mmHg 72%
    18:00 +24°C° 0.5 mm 0 m/S 675 mmHg 79%
    19:00 +22°C° 0.5 mm 0 m/S 675 mmHg 86%
    20:00 +22°C° 0.5 mm 0 m/S 675 mmHg 86%
    21:00 +21°C° 0.5 mm 0 m/S 676 mmHg 87%
    22:00 +21°C° 0.5 mm 0 m/S 677 mmHg 88%
    23:00 +21°C° 0.1 mm 0 m/S 676 mmHg 88%

    Morgen, 25 Januar, Samstag

    Zeit Temperatur Niederschläge Wind Luftdruck Luftfeuchtigkeit
    00:00 +21°C° 0.1 mm 0 m/S 676 mmHg 88%
    01:00 +20°C° 0.1 mm 0 m/S 676 mmHg 88%
    02:00 +20°C° 0.4 mm 0 m/S 676 mmHg 88%
    03:00 +20°C° 0.4 mm 0 m/S 675 mmHg 88%
    04:00 +20°C° 0.4 mm 0 m/S 675 mmHg 89%
    05:00 +20°C° 0.1 mm 0 m/S 675 mmHg 88%
    06:00 +20°C° 0.1 mm 0 m/S 676 mmHg 87%
    07:00 +20°C° 0.1 mm 0 m/S 676 mmHg 87%
    08:00 +22°C° 0.3 mm 0 m/S 677 mmHg 83%
    09:00 +26°C° 0.3 mm 1 m/S 678 mmHg 79%
    10:00 +28°C° 0.3 mm 1 m/S 679 mmHg 75%
    11:00 +28°C° 0.9 mm 1 m/S 678 mmHg 73%
    12:00 +29°C° 0.9 mm 1 m/S 677 mmHg 72%
    13:00 +29°C° 0.9 mm 1 m/S 676 mmHg 71%
    14:00 +29°C° 1.4 mm 1 m/S 676 mmHg 73%
    15:00 +28°C° 1.4 mm 1 m/S 675 mmHg 75%
    16:00 +28°C° 1.4 mm 1 m/S 675 mmHg 77%
    17:00 +24°C° 1.1 mm 0 m/S 675 mmHg 81%
    18:00 +23°C° 1.1 mm 0 m/S 675 mmHg 86%
    19:00 +22°C° 1.1 mm 0 m/S 675 mmHg 91%
    20:00 +22°C° 1 mm 0 m/S 676 mmHg 92%
    21:00 +21°C° 1 mm 0 m/S 676 mmHg 92%
    22:00 +21°C° 1 mm 0 m/S 677 mmHg 93%
    23:00 +21°C° 0.7 mm 0 m/S 677 mmHg 93%

    übermorgen, 26 Januar, Sonntag

    Zeit Temperatur Niederschläge Wind Luftdruck Luftfeuchtigkeit
    00:00 +21°C° 0.7 mm 0 m/S 676 mmHg 94%
    01:00 +21°C° 0.7 mm 0 m/S 676 mmHg 95%
    02:00 +21°C° 0.8 mm 0 m/S 676 mmHg 95%
    03:00 +21°C° 0.8 mm 0 m/S 676 mmHg 95%
    04:00 +20°C° 0.8 mm 0 m/S 675 mmHg 96%
    05:00 +21°C° 0.5 mm 0 m/S 676 mmHg 96%
    06:00 +21°C° 0.5 mm 0 m/S 676 mmHg 96%
    07:00 +21°C° 0.5 mm 0 m/S 677 mmHg 96%
    08:00 +21°C° 0.4 mm 0 m/S 677 mmHg 93%
    09:00 +22°C° 0.4 mm 0 m/S 677 mmHg 90%
    10:00 +25°C° 0.4 mm 1 m/S 678 mmHg 88%
    11:00 +24°C° 1.3 mm 0 m/S 678 mmHg 84%
    12:00 +25°C° 1.3 mm 0 m/S 677 mmHg 81%
    13:00 +26°C° 1.3 mm 0 m/S 677 mmHg 77%
    14:00 +26°C° 2 mm 0 m/S 676 mmHg 79%
    15:00 +25°C° 2 mm 0 m/S 676 mmHg 80%
    16:00 +25°C° 2 mm 0 m/S 675 mmHg 82%
    17:00 +23°C° 0.8 mm 0 m/S 675 mmHg 85%
    18:00 +22°C° 0.8 mm 0 m/S 676 mmHg 88%
    19:00 +21°C° 0.8 mm 0 m/S 676 mmHg 91%
    20:00 +21°C° 0.6 mm 0 m/S 676 mmHg 92%
    21:00 +21°C° 0.6 mm 0 m/S 677 mmHg 92%
    22:00 +21°C° 0.6 mm 0 m/S 677 mmHg 93%
    23:00 +21°C° 0.5 mm 0 m/S 677 mmHg 93%

    27 Januar, Montag

    Zeit Temperatur Niederschläge Wind Luftdruck Luftfeuchtigkeit
    00:00 +21°C° 0.5 mm 0 m/S 676 mmHg 94%
    01:00 +21°C° 0.5 mm 0 m/S 676 mmHg 94%
    02:00 +20°C° 0.7 mm 0 m/S 676 mmHg 95%
    03:00 +20°C° 0.7 mm 0 m/S 676 mmHg 95%
    04:00 +20°C° 0.7 mm 0 m/S 675 mmHg 96%
    05:00 +20°C° 0.5 mm 0 m/S 676 mmHg 96%
    06:00 +20°C° 0.5 mm 0 m/S 676 mmHg 96%
    07:00 +20°C° 0.5 mm 0 m/S 677 mmHg 96%
    08:00 +21°C° 0.2 mm 0 m/S 677 mmHg 94%
    09:00 +21°C° 0.2 mm 0 m/S 678 mmHg 92%
    10:00 +22°C° 0.2 mm 0 m/S 678 mmHg 90%
    11:00 +24°C° 0.6 mm 0 m/S 678 mmHg 84%
    12:00 +27°C° 0.6 mm 1 m/S 678 mmHg 78%
    13:00 +29°C° 0.6 mm 1 m/S 678 mmHg 71%
    14:00 +28°C° 1.6 mm 1 m/S 677 mmHg 75%
    15:00 +25°C° 1.6 mm 0 m/S 676 mmHg 79%
    16:00 +24°C° 1.6 mm 0 m/S 675 mmHg 83%
    17:00 +23°C° 1.2 mm 0 m/S 675 mmHg 86%
    18:00 +22°C° 1.2 mm 0 m/S 676 mmHg 88%
    19:00 +23°C° 1.2 mm 1 m/S 676 mmHg 90%
    20:00 +21°C° 0.5 mm 0 m/S 676 mmHg 91%
    21:00 +21°C° 0.5 mm 0 m/S 677 mmHg 91%
    22:00 +20°C° 0.5 mm 0 m/S 677 mmHg 92%
    23:00 +20°C° 0.2 mm 0 m/S 677 mmHg 92%

    28 Januar, Dienstag

    Zeit Temperatur Niederschläge Wind Luftdruck Luftfeuchtigkeit
    00:00 +20°C° 0.2 mm 0 m/S 677 mmHg 92%
    01:00 +20°C° 0.2 mm 0 m/S 676 mmHg 92%
    02:00 +20°C° 0.2 mm 0 m/S 676 mmHg 92%
    03:00 +20°C° 0.2 mm 0 m/S 676 mmHg 92%
    04:00 +20°C° 0.2 mm 0 m/S 675 mmHg 92%
    05:00 +20°C° 0.1 mm 0 m/S 676 mmHg 92%
    06:00 +20°C° 0.1 mm 0 m/S 676 mmHg 91%
    07:00 +20°C° 0.1 mm 0 m/S 677 mmHg 91%
    08:00 +21°C° 0.2 mm 0 m/S 677 mmHg 87%
    09:00 +23°C° 0.2 mm 0 m/S 678 mmHg 84%
    10:00 +26°C° 0.2 mm 1 m/S 678 mmHg 80%
    11:00 +27°C° 0.6 mm 1 m/S 678 mmHg 76%
    12:00 +28°C° 0.6 mm 1 m/S 677 mmHg 71%
    13:00 +29°C° 0.6 mm 1 m/S 677 mmHg 67%
    14:00 +29°C° 0.6 mm 1 m/S 676 mmHg 69%
    15:00 +28°C° 0.6 mm 1 m/S 676 mmHg 71%
    16:00 +28°C° 0.6 mm 1 m/S 675 mmHg 73%
    17:00 +26°C° 0.8 mm 1 m/S 675 mmHg 79%
    18:00 +25°C° 0.8 mm 1 m/S 675 mmHg 85%
    19:00 +23°C° 0.8 mm 1 m/S 675 mmHg 92%
    20:00 +21°C° 0.3 mm 0 m/S 676 mmHg 92%
    21:00 +21°C° 0.3 mm 0 m/S 676 mmHg 92%
    22:00 +20°C° 0.3 mm 0 m/S 677 mmHg 92%
    23:00 +20°C° 0.1 mm 0 m/S 676 mmHg 92%

    29 Januar, Mittwoch

    Zeit Temperatur Niederschläge Wind Luftdruck Luftfeuchtigkeit
    00:00 +20°C° 0.1 mm 0 m/S 676 mmHg 93%
    01:00 +20°C° 0.1 mm 0 m/S 676 mmHg 93%
    02:00 +19°C° 0.1 mm 0 m/S 676 mmHg 93%
    03:00 +19°C° 0.1 mm 0 m/S 675 mmHg 93%
    04:00 +19°C° 0.1 mm 0 m/S 675 mmHg 93%
    05:00 +19°C° 0 mm 0 m/S 675 mmHg 92%
    06:00 +19°C° 0 mm 0 m/S 676 mmHg 92%
    07:00 +19°C° 0 mm 0 m/S 676 mmHg 91%
    08:00 +21°C° 0.1 mm 0 m/S 677 mmHg 86%
    09:00 +25°C° 0.1 mm 1 m/S 677 mmHg 81%
    10:00 +27°C° 0.1 mm 1 m/S 678 mmHg 76%
    11:00 +28°C° 0.3 mm 1 m/S 677 mmHg 72%
    12:00 +29°C° 0.3 mm 1 m/S 677 mmHg 68%
    13:00 +30°C° 0.3 mm 1 m/S 676 mmHg 64%
    14:00 +29°C° 0.3 mm 1 m/S 676 mmHg 66%
    15:00 +29°C° 0.3 mm 1 m/S 675 mmHg 67%
    16:00 +29°C° 0.3 mm 1 m/S 674 mmHg 68%
    17:00 +27°C° 0.8 mm 1 m/S 675 mmHg 76%
    18:00 +25°C° 0.8 mm 1 m/S 675 mmHg 83%
    19:00 +21°C° 0.8 mm 0 m/S 675 mmHg 91%
    20:00 +21°C° 0.4 mm 0 m/S 675 mmHg 91%
    21:00 +21°C° 0.4 mm 0 m/S 676 mmHg 92%
    22:00 +20°C° 0.4 mm 0 m/S 676 mmHg 92%
    23:00 +20°C° 0.1 mm 0 m/S 676 mmHg 92%
    Mehr zeigen